User: anonymous   Login
Location: ?????
(37.7324°N, 23.9257°E)
Time: 12:14:38
(UTC+00:00)
Language:

SL-4 R/B - Orbit

View from above orbital plane
View from above orbital plane
View from above satellite
View from above satellite

Ground track
Ground track

The orbit data is extracted from the following two-line orbital elements,

1 39679U 14021B   21062.14672322  .00000552  00000-0  44544-4 0  9997
2 39679  51.6167 346.6026 0171179 122.3601 239.4067 15.06778694378349
Epoch (UTC): 03 March 2021 03:31:16
Eccentricity: 0.0171179
inclination: 51.6167°
perigee height: 427 km
apogee height: 664 km
right ascension of ascending node: 346.6026°
argument of perigee: 122.3601°
revolutions per day: 15.06778694
mean anomaly at epoch: 239.4067°
orbit number at epoch: 37834

The dashed part of the orbit path shows where the satellite is in the earth's shadow,  

DLR